Location: Palomar Mountain Lodge
(33.3110°N, 116.8495°W)
Time: 01:32:32
(UTC-07:00)

NOSS 3-1 (A) - Pass Details

Date: 14 June 2018
Orbit: 796 x 1417 km, 63.4° (Epoch: 16 October)

Event Time Altitude Azimuth Distance (km) Brightness Sun altitude
Rises 21:04:06 0° 216° (SW) 3,293 6.3 -12.3°
Reaches altitude 10° 21:06:27 10° 219° (SW) 2,391 5.6 -12.7°
Maximum altitude 21:11:52 68° 302° (WNW) 927 3.6 -13.5°
Drops below altitude 10° 21:17:58 10° 25° (NNE) 2,674 6.0 -14.5°
Sets 21:20:43 0° 28° (NNE) 3,715 6.7 -14.9°
